User: anonymous   Login
Location: Saddleback Butte
(34.6776°N, 117.8050°W)
Time: 23:36:14
(UTC-07:00)
Language:

Cosmos 1862 Rocket - Orbit

View from above orbital plane
View from above orbital plane
View from above satellite
View from above satellite

Ground track
Ground track

The orbit data is extracted from the following two-line orbital elements,

1 18153U 87055B   17232.56892077 +.00000085 +00000-0 +75353-5 0  9993
2 18153 082.4987 044.0369 0020434 228.8139 131.1314 14.83186003606820
Epoch (UTC): 20 August 2017 13:39:14
Eccentricity: 0.0020434
inclination: 82.4987°
perigee height: 605 km
apogee height: 633 km
right ascension of ascending node: 44.0369°
argument of perigee: 228.8139°
revolutions per day: 14.83186003
mean anomaly at epoch: 131.1314°
orbit number at epoch: 60682

The dashed part of the orbit path shows where the satellite is in the earth's shadow,  

DLR